www.pogodaiklimat.ru

Погода и климат >> Архив погоды >> Канада >> Chapleau A


ПОГОДА в Chapleau A

  • Прогноз погоды в Chapleau A
  • Монитор погоды в Chapleau A
  • Климат города

АРХИВ ПОГОДЫ в Chapleau A

Время (UTC), дата Ветер
(напр.,м/с)
 
Видим.   Явления Облачность Т
(С)
Тd
(С)
f
(%)
Тe
(С)
Тes
(С)
Комфортность P
(гПа)
Po
(гПа)
Тmin
(С)
Tmax
(С)
R
(мм)
R24
(мм)
S
(см)
15 15.11 ЮВ 2 6000 м 10/10 100 м
[]
+0.1 -0.2 98 -4 -4 1011.6 956.7
18 15.11 ЮВ 3 22 км слабый снег {дождь, морось} 10/10 100 м
[Sc]
+0.8 +0.3 96 -4 -4 1007.6 953.0 4 12
21 15.11 ЮВ 2 19 км 10/10 100 м
[]
+0.8 +0.3 96 -3 -3 1004.4 950.0
00 16.11 В 2 1000 м слабый снег {дождь} 8/8 100 м
[Sc]
-0.1 -0.3 99 -3 -3 1002.8 948.4 +2.1 4 14
12 16.11 С 7 17 км слабый снег 10/10 300 м
[Sc]
-5.8 -7.6 87 -14 -14 1012.9 957.5 5 16
15 16.11 С 8 20 км 10/10 300 м
[]
-6.7 -9.1 83 -16 -16 1018.0 962.3
18 16.11 С 6 24 км слабый снег 10/10 300 м
[Sc]
-7.5 -9.8 84 -16 -16 1021.1 965.2 0.2 14
21 16.11 С 6 16 км 10/10 600 м
[]
-7.9 -10.9 79 -16 -16 1023.6 967.3
00 17.11 С 4 16 км слабый снег 10/10 600 м
[Sc]
-8.6 -11.4 80 -16 -16 1026.7 970.1 -5.8 0.0 13
12 17.11 ЮВ 2 24 км 6/0
[Ac trans Cs]
-12.3 -13.7 89 -17 -17 1025.4 968.4 0.2 13
15 17.11 Ю 4 24 км 10/10 200 м
[]
-11.1 -12.7 88 -18 -18 1022.4 965.6
18 17.11 Ю 6 24 км 10/8 300 м
[Sc As op]
-7.3 -8.9 88 -15 -15 1018.4 962.0
21 17.11 Ю 5 4800 м 10/10 100 м
[]
-4.9 -5.8 93 -12 -12 1014.0 957.8
00 18.11 ЮВ 4 1600 м слабый снег н/о -4.0 -4.8 94 -10 -10 1010.8 954.9 -4.0 1 15
12 18.11 С 1 24 км 10/10 100 м
[Sc]
-3.6 -4.1 96 -4 -4 1003.6 948.6 6 19
15 18.11 С 3 6000 м 9/9 <50 м
[]
-2.0 -2.4 97 -7 -7 1003.0 948.2
18 18.11 С 3 24 км 10/10 100 м
[Sc]
-1.5 -2.2 95 -7 -7 1001.9 947.2
21 18.11 С 4 19 км 10/10 100 м
[]
-2.1 -2.7 96 -8 -8 1002.3 947.5
00 19.11 С 5 24 км {снег} 10/10 100 м
[Frnb]
-3.1 -4.0 93 -10 -10 1002.9 948.0 -1.2 0.0 18
12 19.11 СЗ 4 24 км слабый снег 10/10 300 м
[Sc]
-11.2 -13.4 84 -18 -18 1007.6 952.0 0.2 18
15 19.11 СЗ 3 16 км 10/10 300 м
[]
-11.1 -13.7 81 -16 -16 1009.3 953.5
18 19.11 СЗ 2 1200 м слабый снег 6/6 300 м
[Sc]
-10.2 -12.7 82 -15 -14 1009.1 953.2 0.4 19
21 19.11 З 4 24 км 10/10 600 м
[]
-10.0 -13.2 77 -17 -17 1009.2 953.2
00 20.11 ЮЗ 1 24 км слабый снег 10/10 600 м
[Sc]
-11.9 -14.2 83 -14 -14 1010.1 953.8 -9.6 0.0 18
12 20.11 С 1 24 км ясно -20.1 -21.4 89 -21 -21 1012.7 955.7 0.2 18
15 20.11 Ю 3 24 км 4/4 600 м
[]
-11.9 -15.3 76 -18 -17 1011.8 955.4
21 20.11 Ю 3 24 км 10/10 200 м
[]
-6.3 -8.0 88 -11 -11 1007.1 950.9
00 21.11 Ю 4 24 км 10/10 100 м
[Sc]
-4.7 -5.6 93 -11 -11 1004.8 948.7 -4.7
12 21.11 Ю 4 24 км 10/10 600 м
[Sc]
+1.4 +0.2 92 -4 -4 991.3 937.3 0.0 18
15 21.11 ЮЗ 5 24 км 9/9 200 м
[]
+1.6 -0.5 86 -4 -4 993.5 939.5
18 21.11 24 км слабый ливневой снег {дождь} н/о -0.5 -3.1 83 -7 -7 997.3 943.1 2 18
21 21.11 СЗ 5 16 км 10/10 300 м
[]
-8.3 -11.0 81 -16 -16 1006.3 951.2
00 22.11 СЗ 4 16 км слабый снег {метель} 10/10 600 м
[Sc]
-10.1 -13.2 78 -17 -17 1013.2 957.6 +1.7 0.8 18

 

Местоположение метеостанции Chapleau A (Канада): широта 47.82 долгота -83.35 высота над уровнем моря 447 м.

В архиве по умолчанию представлена погода в Chapleau A за последнюю неделю. Архивные данные за месяц целиком и за предыдущие месяцы, начиная с января 2011 года, Вы можете получить, выбрав интересующий диапазон дат из раскрывающегося списка и нажав кнопку "Ввод!".

Внимание! Время в таблицах - всемирное. Для получения местного времени необходимо прибавить поправку, которая в Chapleau A равна -5 ч.

Смотрите также архив погоды в соседних городах и на ближайших метеорологических станциях:

Погода в Lake Superior Provincial Park (Канада) (103 км)
Погода в Wawa (Канада) (108 км)
Погода в Montreal River Radar (Канада) (120 км)
Погода в Timmins Climate (Канада) (167 км)
Погода в Timmins (Канада) (169 км)
Погода в Sault Ste Marie (Канада) (173 км)
Погода в Elliott Lake (Канада) (174 км)
Погода в Kapuskasing (Канада) (188 км)
Погода в Kapuskasing (Канада) (188 км)
Погода в Kapuskasing Airport (Канада) (190 км)

Пояснения к столбцам:

Ветер - указаны скорость ветра в м/с - средняя за 10 мин, порывы в срок и между сроками (в фигурных скобках) и направление, откуда дует ветер: С - северный, СВ - северо-восточный, В - восточный, ЮВ - юго-восточный, Ю - южный, ЮЗ - юго-западный, З - западный, СЗ - северо-западный.
Видимость - горизонтальная дальность видимости в метрах или километрах. При видимости от 1 до 10 км при отсутствии осадков обычно наблюдается дымка, при ухудшении видимости до 1 км и менее - туман. В сухую погоду видимость может ухудшаться дымом, пылью или мглою.
Явления - указаны атмосферные явления, наблюдавшиеся в срок или в последний час перед сроком; фигурными скобками обозначены явления, наблюдавшиеся между сроками (за 1-3 часа до срока); квадратными скобками обозначены град или гололедные отложения с указанием их диаметра в мм.
Облачность - указаны через наклонную черту общая и нижняя облачность в баллах и высота нижней границы облаков в метрах; квадратными скобками обозначены формы облаков: Ci - перистые, Cs - перисто-слоистые, Cc - перисто-кучевые, Ac - высококучевые, As - высокослоистые, Sc - слоисто-кучевые, Ns - слоисто-дождевые, Cu - кучевые, Cb - кучево-дождевые. Подробнее классификацию облаков см. в Атласе облаков (PDF).
T - Температура воздуха - температура, измеренная на высоте 2 м над землей.
Td - Температура точки росы - температура, при понижении до которой содержащийся в воздухе водяной пар достигнет насыщения.
f - Относительная влажность воздуха - влажноcть воздуха, измеренная на высоте 2 м над землей.
Te - Эффективная температура - температура, которую ощущает одетый по сезону человек в тени. Характеристика душности погоды. При расчете учитывается влияние влажности воздуха и скорости ветра на теплоощущения человека.
Tes - Эффективная температура на солнце - температура, которую ощущает человек, с поправкой на солнечный нагрев. Характеристика знойности погоды. Зависит от высоты солнца над горизонтом, облачности и скорости ветра. Ночью, в пасмурную погоду, а также при ветре 12 м/с и более поправка равна нулю.
P - Атмосферное давление - приведенное к уровню моря атмосферное давление.
Po - Атмосферное давление - измеренное на уровне метеостанции атмосферное давление.
Tmin - Минимальная температура - минимум температуры воздуха на высоте 2 м над землей.
Tmax - Максимальная температура - максимум температуры воздуха на высоте 2 м над землей.
R - Количество осадков - Количество выпавших осадков за период времени, мм. При наведении курсора мыши на число - период времени, за который выпало указанное количество осадков.
R24 - Количество осадков - Количество выпавших осадков за 24 часа, мм.
S - Снежный покров - Высота снежного покрова, см. При наведении курсора мыши на число - состояние снежного покрова и степень покрытия местности в баллах.